EHI
0 0 0 0 0 0 0 0 0 0 0 0 0 0 0 0 0 0 0 0 0 0 0 0 0 0 1 1 1 1 1 3 3 2 1 0 0 0 0 0 0 0 0 0
0 0 0 0 0 0 0 0 0 0 0 0 0 0 0 0 0 0 0 0 0 0 0 1 1 1 1 1 1 2 2 3 3 1 0 0 0 0 0 0 0 0 0 0
0 0 0 0 0 0 0 0 0 0 0 0 0 0 0 0 0 0 0 0 0 0 0 1 2 2 2 1 2 3 3 3 3 1 0 0 0 0 0 0 0 0 0 0
0 0 0 0 0 0 0 0 0 0 0 0 0 0 0 0 0 0 0 0 0 0 0 1 1 1 1 0 1 2 2 2 2 1 0 0 0 0 0 0 0 0 0 0
0 0 0 0 0 0 0 0 0 0 0 0 0 0 0 0 0 0 0 0 0 0 0 0 0 0 0 0 0 1 1 1 1 1 0 0 0 0 0 0 0 0 0 0
0 0 0 0 0 0 0 0 0 0 0 0 0 0 0 0 0 0 0 0 0 0 0 0 0 0 0 0 0 0 0 0 0 0 0 0 0 0 0 0 0 0 0 0
0 0 0 0 0 0 0 0 0 0 0 0 0 0 0 0 0 0 0 0 0 0 0 0 0 0 0 1 0 0 0 0 0 0 0 0 0 0 0 0 0 0 0 0
0 0 0 0 0 0 0 0 0 0 0 0 0 0 0 0 0 0 0 0 0 0 0 0 0 0 0 0 0 0 0 0 0 0 0 0 0 0 0 0 0 0 0 0
0 0 0 0 0 0 0 0 0 0 0 0 0 0 0 0 0 0 0 0 0 0 0 0 0 1 0 0 0 0 0 0 0 0 0 0 0 0 0 0 0 0 0 0
0 0 0 0 0 0 0 0 0 0 0 0 0 0 0 0 0 0 0 0 0 0 0 0 0 0 0 0 0 0 0 0 0 0 0 0 0 0 0 0 0 0 0 0
0 0 0 0 0 0 0 0 0 0 0 0 0 0 0 0 0 0 0 0 0 0 0 0 0 0 0 0 0 0 0 0 0 0 0 0 0 0 0 0 0 0 0 0
0 0 0 0 0 0 0 0 0 0 0 0 0 0 0 0 0 0 0 0 0 0 0 0 0 0 0 0 0 0 0 0 0 0 0 0 0 0 0 0 0 0 0 0
0 0 0 0 0 0 0 0 0 0 0 0 0 0 0 0 0 0 0 0 0 0 0 0 0 0 0 0 0 0 0 0 0 0 0 0 0 0 0 0 0 0 0 0
0 0 0 0 0 0 0 0 0 0 0 0 0 0 0 0 0 0 0 0 0 0 0 0 0 0 0 0 0 0 0 0 0 0 0 0 0 0 0 0 0 0 0 0
0 0 0 0 0 0 0 0 0 0 0 0 0 0 0 0 0 0 0 0 0 0 0 0 0 0 0 0 0 0 0 0 0 0 0 0 0 0 0 0 0 0 0 0
0 0 0 0 0 0 0 0 0 0 0 0 0 0 0 0 0 0 0 0 0 0 0 0 0 0 0 0 0 0 0 0 0 0 0 0 0 0 0 0 0 0 0 0
0 0 0 0 0 0 0 0 0 0 0 0 0 0 0 0 0 0 0 0 0 0 0 0 0 0 0 0 0 0 0 0 0 0 0 0 0 0 0 0 0 0 0 0
0 0 0 0 0 0 0 0 0 0 0 0 0 0 0 0 0 0 0 0 0 0 0 0 0 0 0 0 0 0 0 0 0 0 0 0 0 0 0 0 0 0 0 0
0 0 0 0 0 0 0 0 0 0 0 0 0 0 0 0 0 0 0 0 0 0 0 0 0 0 0 0 0 0 0 0 0 0 0 0 0 0 0 0 0 0 0 0
0 0 0 0 0 0 0 0 0 0 0 0 0 0 0 0 0 0 0 0 0 0 0 0 0 0 0 0 0 0 0 0 0 0 0 0 0 0 0 0 0 0 0 0
0 0 0 0 0 0 0 0 0 0 0 0 0 0 0 0 0 0 0 0 0 0 0 0 0 0 0 0 0 0 0 0 0 0 0 0 0 0 0 0 0 0 0 0
0 0 0 0 0 0 0 0 0 0 0 0 0 0 0 0 0 0 0 0 0 0 0 0 0 0 0 0 0 0 0 0 0 0 0 0 0 0 0 0 0 0 0 0
0 0 0 0 0 0 0 0 0 0 0 0 0 0 0 0 0 0 0 0 0 0 0 0 0 0 0 0 0 0 0 0 0 0 0 0 0 0 0 0 0 0 0 0
0 0 0 0 0 0 0 0 0 0 0 0 0 0 0 0 0 0 0 0 0 0 0 0 0 0 0 0 0 0 0 0 0 0 0 0 0 0 0 0 0 0 0 0
0 0 0 0 0 0 0 0 0 0 0 0 0 0 0 0 0 0 0 0 0 0 0 0 0 0 0 0 0 0 0 0 0 0 0 0 0 0 0 0 0 0 0 0
0 0 0 0 0 0 0 0 0 0 0 0 0 0 0 0 0 0 0 0 0 0 0 0 0 0 0 0 0 0 0 0 0 0 0 0 0 0 0 0 0 0 0 0
0 0 0 0 0 0 0 0 0 0 0 0 0 0 0 0 0 0 0 0 0 0 0 0 0 0 0 0 0 0 0 0 0 0 0 0 0 0 0 0 0 0 0 0
Wind_Speed
4 4 3 4 5 5 6 7 7 8 8 9 7 6 6 5 4 3 3 3 3 3 3 3 2 2 2 2 3 4 4 4 4 3 4 4 4 4 4 4 4 4 4 3
3 3 3 5 6 7 7 6 7 7 9 7 6 4 4 5 4 5 5 5 5 4 3 3 3 3 3 3 3 4 5 4 3 3 4 4 4 4 4 4 4 4 4 4
3 3 2 6 7 7 5 5 6 8 9 5 5 5 6 6 5 6 6 5 5 4 5 5 5 5 5 5 4 4 4 4 4 4 4 5 5 5 5 4 4 4 4 4
1 1 6 7 3 5 5 6 6 6 6 5 6 5 5 4 5 6 5 5 5 4 5 5 4 4 3 3 4 4 4 4 4 4 4 4 5 5 4 4 4 4 4 4
2 3 7 6 2 3 3 5 4 5 5 4 3 3 4 3 4 5 6 5 5 5 4 4 4 4 4 4 4 4 4 4 4 4 4 5 6 5 4 4 4 4 4 4
3 3 6 6 3 2 2 4 3 2 3 3 1 2 6 5 5 5 4 4 4 3 2 3 4 4 4 5 5 5 5 5 4 5 5 5 6 5 4 4 4 4 4 4
4 5 8 6 3 2 3 6 3 2 3 2 4 6 6 5 5 5 4 4 3 2 3 4 3 4 5 5 6 6 4 4 4 5 5 4 4 4 4 4 4 4 4 3
4 4 8 3 2 4 5 3 3 4 4 4 5 6 5 4 5 4 4 4 3 3 3 3 4 5 5 6 6 4 4 4 4 4 4 3 4 4 4 5 5 4 3 3
7 7 5 2 4 4 3 3 4 4 5 5 5 6 6 5 5 5 4 4 3 3 4 3 3 5 6 5 4 4 4 4 4 4 3 4 5 5 4 4 4 4 4 3
4 7 6 6 5 5 4 4 4 4 5 5 6 6 6 6 5 4 4 4 4 3 3 4 4 4 5 4 4 5 5 5 4 4 4 4 4 4 5 5 4 4 4 4
6 7 6 6 6 6 5 5 5 5 5 5 6 6 6 6 6 5 5 5 4 4 4 5 4 4 4 4 5 5 5 4 4 4 4 4 3 4 5 5 6 7 6 5
8 7 6 8 6 5 6 7 7 6 6 6 5 6 6 6 6 5 5 5 5 4 4 4 3 4 4 4 5 6 5 4 4 4 4 4 3 2 2 3 5 6 6 6
9 8 8 9 8 7 7 8 8 7 7 7 6 5 5 6 6 5 5 5 5 5 4 4 3 3 3 4 5 6 6 5 4 4 4 4 4 4 3 2 2 3 5 6
6 5 6 7 8 7 7 7 7 6 6 6 6 5 5 5 6 5 5 5 5 4 4 3 3 3 3 4 4 5 5 6 5 5 5 5 5 5 4 5 4 2 3 5
6 5 7 7 6 6 5 5 5 6 5 5 5 5 5 5 6 6 5 5 3 3 3 3 3 3 2 3 4 5 4 4 4 4 4 4 4 4 4 5 4 3 2 2
6 5 5 5 6 6 5 5 5 6 5 5 5 5 6 6 5 4 4 4 3 3 3 3 3 3 2 2 3 3 4 6 5 4 4 4 4 4 4 5 5 4 4 4
4 5 5 5 5 5 5 6 6 6 5 6 6 6 5 4 4 4 4 3 3 4 3 3 2 2 2 3 3 2 3 4 5 4 4 4 4 5 5 5 5 5 4 5
5 6 6 6 6 6 6 6 5 5 6 6 6 4 3 3 4 4 4 4 3 3 3 2 2 1 1 2 2 2 3 3 4 4 4 4 4 4 4 4 5 5 3 4
5 5 5 5 5 5 6 6 6 6 6 5 4 3 4 4 4 4 4 3 2 3 3 3 2 1 1 2 2 2 2 3 3 3 3 4 3 3 4 4 5 5 5 4
5 5 5 5 5 4 5 6 6 5 5 3 3 3 3 4 4 3 3 3 3 3 3 3 2 2 2 3 2 2 3 3 3 3 3 3 4 4 4 4 5 5 5 5
6 5 5 5 5 5 5 5 4 4 4 2 2 3 3 4 3 2 2 3 4 2 2 3 2 2 2 2 2 2 2 3 3 3 4 4 4 4 4 4 4 5 5 5
5 4 5 5 4 5 5 4 3 3 3 2 3 3 2 3 3 3 3 3 3 3 2 2 2 2 2 2 2 3 3 4 3 3 4 4 4 4 4 4 4 4 5 5
5 4 5 5 4 5 5 4 3 3 3 3 3 2 2 3 3 2 3 3 2 3 3 2 2 3 3 2 2 3 3 4 4 4 4 4 4 4 4 4 4 4 4 4
5 4 4 4 4 3 4 5 4 3 3 3 3 2 2 2 3 2 2 3 4 4 3 2 3 3 2 1 2 2 3 3 3 3 3 3 3 4 4 4 4 4 4 5
5 4 3 3 3 3 4 4 4 4 3 3 3 3 3 2 2 3 2 2 3 3 3 2 3 3 2 1 2 2 3 3 3 3 3 3 3 3 3 3 3 4 4 4
4 3 3 3 3 3 3 2 2 3 2 3 3 3 3 3 2 2 2 2 2 3 3 2 2 2 1 1 1 1 2 3 3 3 3 3 3 4 4 4 4 4 4 4
3 3 3 3 3 3 2 2 2 3 3 2 3 3 3 3 2 2 2 2 2 2 2 2 2 1 0 0 1 1 1 1 2 2 2 3 3 3 4 4 4 3 4 4
Wind_Direction
239 248 225 231 239 210 204 204 209 235 241 263 274 274 280 286 287 292 287 279 267 257 257 260 267 245 219 216 200 180 167 170 187 191 181 173 168 168 166 165 168 166 157 160
277 272 259 257 251 230 231 228 235 248 258 263 271 276 279 275 266 267 267 265 266 259 249 245 251 239 214 212 199 176 174 182 174 169 170 173 170 164 159 156 154 156 162 164
269 301 326 265 241 218 218 218 206 226 245 262 270 262 257 258 255 255 260 259 257 252 238 232 235 231 213 203 184 176 182 180 168 168 173 175 169 158 160 161 156 159 167 166
210 20 240 246 242 199 212 237 225 234 248 241 250 259 269 258 244 256 262 262 261 257 251 239 228 226 205 179 174 179 181 177 172 171 175 170 164 168 172 163 164 168 170 170
154 221 271 286 258 189 204 259 236 240 258 268 288 321 303 281 262 256 257 253 251 250 251 241 223 211 177 174 176 176 187 191 183 173 172 171 175 179 175 166 168 170 168 166
158 201 240 246 253 238 136 267 272 245 262 280 3 290 275 291 289 284 282 272 267 268 256 243 232 193 175 185 183 194 199 196 183 175 176 182 186 179 170 168 170 163 160 170
192 225 258 257 274 103 168 246 288 268 269 268 240 240 259 284 289 283 280 276 262 260 240 236 220 185 187 195 203 206 195 180 177 178 179 177 173 170 161 160 155 159 165 174
176 212 251 262 124 182 224 270 293 290 274 267 276 280 279 282 288 289 292 289 273 258 261 245 204 190 196 210 214 192 178 172 177 178 176 160 158 165 161 158 158 165 167 174
198 219 246 259 233 253 250 269 281 276 281 280 288 289 291 288 283 282 282 283 280 267 270 254 211 199 206 220 197 175 172 175 175 171 166 158 160 165 162 163 164 170 172 183
252 265 274 282 285 285 273 269 279 276 279 284 285 287 291 289 284 282 280 279 281 278 265 250 230 216 215 209 184 170 175 180 176 169 169 164 161 162 166 173 173 174 179 187
257 274 289 278 265 273 283 289 296 298 286 272 273 282 287 288 286 284 283 276 266 253 250 251 237 223 214 193 177 173 175 177 178 175 175 172 169 173 177 187 185 180 188 183
242 245 242 263 270 276 285 287 282 286 291 284 274 280 289 287 283 280 278 279 275 268 255 251 239 229 218 194 181 175 175 178 183 178 177 174 169 168 187 184 190 194 188 181
245 257 255 268 275 274 272 277 279 272 268 277 284 275 281 288 288 286 284 279 267 264 262 254 237 231 222 201 190 182 186 188 185 181 179 178 180 178 181 189 183 192 193 192
257 262 272 270 270 276 274 277 282 282 278 272 275 276 280 289 290 288 282 278 273 275 270 255 238 241 235 209 196 191 190 192 188 186 182 183 187 187 183 178 178 202 208 197
268 256 257 273 283 284 279 278 282 287 291 290 283 280 282 282 278 281 288 295 291 282 266 246 238 247 242 211 200 193 190 191 190 185 183 184 184 185 185 183 182 182 172 183
286 290 282 277 280 284 283 276 274 282 288 293 292 287 283 275 275 280 286 285 276 272 262 248 245 248 228 205 203 199 196 192 185 181 179 179 181 185 186 186 187 187 191 186
286 294 296 291 287 286 280 271 268 273 280 283 283 286 289 295 301 298 290 286 272 269 257 242 243 250 227 197 191 197 189 183 183 181 185 186 186 191 190 188 190 195 200 187
260 261 264 263 269 278 284 281 277 275 273 278 284 290 291 282 277 281 286 291 298 291 268 247 230 224 210 197 191 181 178 177 178 186 189 188 190 192 188 190 194 197 193 179
291 284 285 286 277 270 276 280 280 277 277 275 270 271 272 274 273 273 274 276 272 278 275 253 239 199 196 209 197 172 173 177 181 186 184 182 186 193 193 193 197 197 188 180
307 304 306 309 311 306 299 293 287 281 278 269 264 281 293 293 284 277 275 272 262 255 257 256 231 204 199 202 195 186 186 182 184 182 180 183 189 197 202 200 196 192 189 190
308 310 319 320 320 316 309 303 298 291 289 278 264 276 288 293 290 285 279 291 296 297 278 263 236 216 203 200 201 196 196 187 186 191 191 193 198 201 205 204 200 195 193 193
303 306 311 311 313 313 313 313 308 302 300 300 299 292 300 309 314 312 291 272 278 296 302 265 234 226 224 220 200 195 198 193 189 194 199 198 199 202 207 205 204 204 200 196
298 297 301 302 304 310 319 321 317 310 303 299 294 293 299 300 291 281 294 296 291 297 305 271 245 237 243 234 203 196 199 197 195 199 204 202 201 201 204 207 206 205 202 198
300 299 301 306 316 324 321 318 321 317 311 312 307 300 294 299 305 297 283 291 304 308 306 280 260 246 253 228 207 202 200 198 198 201 203 204 202 202 202 203 207 205 201 197
296 299 307 312 311 304 302 313 326 330 333 333 327 318 306 292 284 295 307 306 305 322 324 303 288 273 262 225 212 207 204 201 199 197 198 201 202 202 204 205 208 204 198 198
300 297 292 286 285 292 299 307 309 306 315 324 324 323 324 325 320 315 319 328 334 336 331 321 310 291 266 231 228 225 215 205 207 203 198 202 206 204 205 206 209 208 202 199
309 309 315 322 319 310 303 299 299 301 300 297 308 314 317 319 323 328 331 325 324 330 327 323 319 307 286 259 241 236 223 202 198 199 199 201 205 208 210 211 210 207 205 200